Time,TemperatureF,DewpointF,PressureIn,WindDirection,WindDirectionDegrees,WindSpeedMPH,WindSpeedGustMPH,Humidity,HourlyPrecipIn,Conditions,Clouds,dailyrainin,SoftwareType,DateUTC
2013-12-08 00:12:00,37.0,-99.9,30.15,North,358,0.0,0.0,-999,0.00,,,0.00,,2013-12-08 07:12:00,
2013-12-08 00:22:00,37.0,-99.9,30.15,North,358,0.0,0.0,-999,0.00,,,0.00,,2013-12-08 07:22:00,
2013-12-08 00:42:00,38.0,-99.9,30.14,North,358,0.0,0.0,-999,0.00,,,0.00,,2013-12-08 07:42:00,
2013-12-08 00:53:00,38.0,-99.9,30.14,North,358,0.0,0.0,-999,0.00,,,0.00,,2013-12-08 07:53:00,
2013-12-08 01:12:00,37.0,-99.9,30.14,West,281,0.0,0.0,-999,0.00,,,0.00,,2013-12-08 08:12:00,
2013-12-08 01:22:00,37.0,-99.9,30.14,West,281,0.0,0.0,-999,0.00,,,0.00,,2013-12-08 08:22:00,
2013-12-08 01:43:00,37.0,-99.9,30.13,West,271,0.0,5.0,-999,0.00,,,0.00,,2013-12-08 08:43:00,
2013-12-08 01:52:00,37.0,-99.9,30.13,West,271,0.0,5.0,-999,0.00,,,0.00,,2013-12-08 08:52:00,
2013-12-08 02:11:00,38.0,-99.9,30.13,WNW,296,0.0,0.0,-999,0.00,,,0.00,,2013-12-08 09:11:00,
2013-12-08 02:22:00,38.0,-99.9,30.13,WNW,296,0.0,0.0,-999,0.00,,,0.00,,2013-12-08 09:22:00,
2013-12-08 02:43:00,37.0,-99.9,30.13,WNW,296,0.0,0.0,-999,0.00,,,0.00,,2013-12-08 09:43:00,
2013-12-08 02:54:00,37.0,-99.9,30.13,WNW,296,0.0,0.0,-999,0.00,,,0.00,,2013-12-08 09:54:00,
2013-12-08 03:12:00,37.0,-99.9,30.14,WNW,296,0.0,0.0,-999,0.00,,,0.00,,2013-12-08 10:12:00,
2013-12-08 03:23:00,37.0,-99.9,30.14,WNW,296,0.0,0.0,-999,0.00,,,0.00,,2013-12-08 10:23:00,
2013-12-08 03:43:00,38.0,-99.9,30.14,NNW,336,0.0,8.0,-999,0.00,,,0.00,,2013-12-08 10:43:00,
2013-12-08 03:53:00,38.0,-99.9,30.14,NNW,336,0.0,8.0,-999,0.00,,,0.00,,2013-12-08 10:53:00,
2013-12-08 04:12:00,36.0,-99.9,30.14,SW,232,1.0,3.0,-999,0.00,,,0.00,,2013-12-08 11:12:00,
2013-12-08 04:22:00,36.0,-99.9,30.14,SW,232,1.0,3.0,-999,0.00,,,0.00,,2013-12-08 11:22:00,
2013-12-08 04:43:00,34.0,-99.9,30.13,SW,227,0.0,0.0,-999,0.00,,,0.00,,2013-12-08 11:43:00,
2013-12-08 04:53:00,34.0,-99.9,30.13,SW,227,0.0,0.0,-999,0.00,,,0.00,,2013-12-08 11:53:00,
2013-12-08 05:12:00,34.0,-99.9,30.14,SW,227,0.0,0.0,-999,0.00,,,0.00,,2013-12-08 12:12:00,
2013-12-08 05:22:00,34.0,-99.9,30.14,SW,227,0.0,0.0,-999,0.00,,,0.00,,2013-12-08 12:22:00,
2013-12-08 05:42:00,35.0,-99.9,30.14,WSW,247,0.0,0.0,-999,0.00,,,0.00,,2013-12-08 12:42:00,
2013-12-08 05:53:00,35.0,-99.9,30.14,WSW,247,0.0,0.0,-999,0.00,,,0.00,,2013-12-08 12:53:00,
2013-12-08 06:11:00,37.0,-99.9,30.14,WSW,247,0.0,0.0,-999,0.00,,,0.00,,2013-12-08 13:11:00,
2013-12-08 06:22:00,37.0,-99.9,30.14,WSW,247,0.0,0.0,-999,0.00,,,0.00,,2013-12-08 13:22:00,
2013-12-08 06:42:00,34.0,-99.9,30.15,WSW,247,0.0,0.0,-999,0.00,,,0.00,,2013-12-08 13:42:00,
2013-12-08 06:53:00,34.0,-99.9,30.15,WSW,247,0.0,0.0,-999,0.00,,,0.00,,2013-12-08 13:53:00,
2013-12-08 07:12:00,34.0,-99.9,30.15,WSW,247,0.0,0.0,-999,0.00,,,0.00,,2013-12-08 14:12:00,
2013-12-08 07:23:00,34.0,-99.9,30.15,WSW,247,0.0,0.0,-999,0.00,,,0.00,,2013-12-08 14:23:00,
2013-12-08 07:42:00,33.0,-99.9,30.17,WSW,247,0.0,0.0,-999,0.00,,,0.00,,2013-12-08 14:42:00,
2013-12-08 07:52:00,33.0,-99.9,30.17,WSW,247,0.0,0.0,-999,0.00,,,0.00,,2013-12-08 14:52:00,
2013-12-08 08:12:00,38.0,-99.9,30.18,WSW,247,0.0,0.0,-999,0.00,,,0.00,,2013-12-08 15:12:00,
2013-12-08 08:22:00,38.0,-99.9,30.18,WSW,247,0.0,0.0,-999,0.00,,,0.00,,2013-12-08 15:22:00,
2013-12-08 08:43:00,38.0,-99.9,30.19,SSW,203,0.0,3.0,-999,0.00,,,0.00,,2013-12-08 15:43:00,
2013-12-08 08:54:00,38.0,-99.9,30.19,SSW,203,0.0,3.0,-999,0.00,,,0.00,,2013-12-08 15:54:00,
2013-12-08 09:13:00,39.0,-99.9,30.20,SSW,203,0.0,0.0,-999,0.00,,,0.00,,2013-12-08 16:13:00,
2013-12-08 09:23:00,39.0,-99.9,30.20,SSW,203,0.0,0.0,-999,0.00,,,0.00,,2013-12-08 16:23:00,
2013-12-08 09:43:00,41.0,-99.9,30.20,South,175,0.0,0.0,-999,0.00,,,0.00,,2013-12-08 16:43:00,
2013-12-08 09:53:00,41.0,-99.9,30.20,South,175,0.0,0.0,-999,0.00,,,0.00,,2013-12-08 16:53:00,
2013-12-08 10:12:00,42.0,-99.9,30.22,South,175,0.0,0.0,-999,0.00,,,0.00,,2013-12-08 17:12:00,
2013-12-08 10:22:00,42.0,-99.9,30.22,South,175,0.0,0.0,-999,0.00,,,0.00,,2013-12-08 17:22:00,
2013-12-08 10:43:00,45.0,-99.9,30.20,South,175,0.0,0.0,-999,0.00,,,0.00,,2013-12-08 17:43:00,
2013-12-08 10:52:00,45.0,-99.9,30.20,South,175,0.0,0.0,-999,0.00,,,0.00,,2013-12-08 17:52:00,
2013-12-08 11:12:00,46.0,-99.9,30.21,South,175,0.0,0.0,-999,0.00,,,0.00,,2013-12-08 18:12:00,
2013-12-08 11:22:00,46.0,-99.9,30.21,South,175,0.0,0.0,-999,0.00,,,0.00,,2013-12-08 18:22:00,
2013-12-08 11:42:00,47.0,-99.9,30.20,WSW,246,2.0,6.0,-999,0.00,,,0.00,,2013-12-08 18:42:00,
2013-12-08 11:52:00,47.0,-99.9,30.20,WSW,246,2.0,6.0,-999,0.00,,,0.00,,2013-12-08 18:52:00,
2013-12-08 12:12:00,48.0,-99.9,30.19,NW,309,6.0,15.0,-999,0.00,,,0.00,,2013-12-08 19:12:00,
2013-12-08 12:22:00,48.0,-99.9,30.19,NW,309,6.0,15.0,-999,0.00,,,0.00,,2013-12-08 19:22:00,
2013-12-08 12:42:00,49.0,-99.9,30.18,West,274,1.0,5.0,-999,0.00,,,0.00,,2013-12-08 19:42:00,
2013-12-08 12:52:00,49.0,-99.9,30.18,West,274,1.0,5.0,-999,0.00,,,0.00,,2013-12-08 19:52:00,
2013-12-08 13:11:00,49.0,-99.9,30.16,NW,306,1.0,5.0,-999,0.00,,,0.00,,2013-12-08 20:11:00,
2013-12-08 13:22:00,49.0,-99.9,30.16,NW,306,1.0,5.0,-999,0.00,,,0.00,,2013-12-08 20:22:00,
2013-12-08 13:42:00,49.0,-99.9,30.14,West,279,5.0,5.0,-999,0.00,,,0.00,,2013-12-08 20:42:00,
2013-12-08 13:53:00,49.0,-99.9,30.14,West,279,5.0,5.0,-999,0.00,,,0.00,,2013-12-08 20:53:00,
2013-12-08 14:12:00,49.0,-99.9,30.12,West,281,3.0,10.0,-999,0.00,,,0.00,,2013-12-08 21:12:00,
2013-12-08 14:22:00,49.0,-99.9,30.12,West,281,3.0,10.0,-999,0.00,,,0.00,,2013-12-08 21:22:00,
2013-12-08 14:43:00,49.0,-99.9,30.11,WSW,246,0.0,4.0,-999,0.00,,,0.00,,2013-12-08 21:43:00,
2013-12-08 14:53:00,49.0,-99.9,30.11,WSW,246,0.0,4.0,-999,0.00,,,0.00,,2013-12-08 21:53:00,
2013-12-08 15:03:00,49.0,-99.9,30.11,WSW,246,0.0,4.0,-999,0.00,,,0.00,,2013-12-08 22:03:00,
2013-12-08 15:23:00,49.0,-99.9,30.11,West,262,5.0,10.0,-999,0.00,,,0.00,,2013-12-08 22:23:00,
2013-12-08 15:43:00,50.0,-99.9,30.10,WNW,296,6.0,6.0,-999,0.00,,,0.00,,2013-12-08 22:43:00,
2013-12-08 15:53:00,50.0,-99.9,30.10,WNW,296,6.0,6.0,-999,0.00,,,0.00,,2013-12-08 22:53:00,
2013-12-08 16:12:00,50.0,-99.9,30.11,WNW,288,4.0,12.0,-999,0.00,,,0.00,,2013-12-08 23:12:00,
2013-12-08 16:22:00,50.0,-99.9,30.11,WNW,288,4.0,12.0,-999,0.00,,,0.00,,2013-12-08 23:22:00,
2013-12-08 16:33:00,50.0,-99.9,30.11,WNW,288,4.0,12.0,-999,0.00,,,0.00,,2013-12-08 23:33:00,
2013-12-08 16:50:00,49.0,-99.9,30.09,WSW,240,2.0,6.0,-999,0.00,,,0.00,,2013-12-08 23:50:00,
2013-12-08 16:53:00,49.0,-99.9,30.10,West,272,0.0,6.0,-999,0.00,,,0.00,,2013-12-08 23:53:00,
2013-12-08 17:12:00,49.0,-99.9,30.09,WSW,240,2.0,6.0,-999,0.00,,,0.00,,2013-12-09 00:12:00,
2013-12-08 17:22:00,49.0,-99.9,30.09,WSW,240,2.0,6.0,-999,0.00,,,0.00,,2013-12-09 00:22:00,
2013-12-08 17:32:00,49.0,-99.9,30.09,WSW,240,2.0,6.0,-999,0.00,,,0.00,,2013-12-09 00:32:00,
2013-12-08 17:42:00,49.0,-99.9,30.09,WSW,240,2.0,6.0,-999,0.00,,,0.00,,2013-12-09 00:42:00,
2013-12-08 18:22:00,46.0,-99.9,30.10,WNW,302,0.0,0.0,-999,0.00,,,0.00,,2013-12-09 01:22:00,
2013-12-08 18:32:00,46.0,-99.9,30.10,WNW,302,0.0,0.0,-999,0.00,,,0.00,,2013-12-09 01:32:00,
2013-12-08 18:52:00,45.0,-99.9,30.11,WNW,302,0.0,0.0,-999,0.00,,,0.00,,2013-12-09 01:52:00,
2013-12-08 19:02:00,45.0,-99.9,30.11,WNW,302,0.0,0.0,-999,0.00,,,0.00,,2013-12-09 02:02:00,
2013-12-08 19:22:00,44.0,-99.9,30.11,WNW,302,0.0,0.0,-999,0.00,,,0.00,,2013-12-09 02:22:00,
2013-12-08 19:32:00,44.0,-99.9,30.11,WNW,302,0.0,0.0,-999,0.00,,,0.00,,2013-12-09 02:32:00,
2013-12-08 19:53:00,45.0,-99.9,30.12,WSW,240,0.0,0.0,-999,0.00,,,0.00,,2013-12-09 02:53:00,
2013-12-08 20:02:00,45.0,-99.9,30.12,WSW,240,0.0,0.0,-999,0.00,,,0.00,,2013-12-09 03:02:00,
2013-12-08 20:21:00,44.0,-99.9,30.14,WSW,240,0.0,0.0,-999,0.00,,,0.00,,2013-12-09 03:21:00,
2013-12-08 20:22:00,44.0,-99.9,30.14,WSW,240,0.0,0.0,-999,0.00,,,0.00,,2013-12-09 03:22:00,
2013-12-08 20:33:00,44.0,-99.9,30.14,WSW,240,0.0,0.0,-999,0.00,,,0.00,,2013-12-09 03:33:00,
2013-12-08 20:54:00,44.0,-99.9,30.14,WSW,240,0.0,0.0,-999,0.00,,,0.00,,2013-12-09 03:54:00,
2013-12-08 21:03:00,44.0,-99.9,30.14,WSW,240,0.0,0.0,-999,0.00,,,0.00,,2013-12-09 04:03:00,
2013-12-08 21:13:00,44.0,-99.9,30.14,WSW,240,0.0,0.0,-999,0.00,,,0.00,,2013-12-09 04:13:00,
2013-12-08 21:53:00,45.0,-99.9,30.15,West,261,0.0,0.0,-999,0.00,,,0.00,,2013-12-09 04:53:00,
2013-12-08 22:02:00,45.0,-99.9,30.15,West,261,0.0,0.0,-999,0.00,,,0.00,,2013-12-09 05:02:00,
2013-12-08 22:23:00,44.0,-99.9,30.14,SW,232,0.0,0.0,-999,0.00,,,0.00,,2013-12-09 05:23:00,
2013-12-08 22:33:00,44.0,-99.9,30.14,SW,232,0.0,0.0,-999,0.00,,,0.00,,2013-12-09 05:33:00,
2013-12-08 22:53:00,44.0,-99.9,30.14,South,184,0.0,0.0,-999,0.00,,,0.00,,2013-12-09 05:53:00,
2013-12-08 23:02:00,44.0,-99.9,30.14,South,184,0.0,0.0,-999,0.00,,,0.00,,2013-12-09 06:02:00,
2013-12-08 23:22:00,43.0,-99.9,30.15,South,184,0.0,0.0,-999,0.00,,,0.00,,2013-12-09 06:22:00,
2013-12-08 23:32:00,43.0,-99.9,30.15,South,184,0.0,0.0,-999,0.00,,,0.00,,2013-12-09 06:32:00,
2013-12-08 23:52:00,42.0,-99.9,30.16,South,184,0.0,0.0,-999,0.00,,,0.00,,2013-12-09 06:52:00,